Temperature
16 16 16 16 16 16 16 16 16 16 16 16 16 16 16 16 16 16 16 16 16 15 15 15 15 15 15 15 15 15 15 15 15 15 15 15 15 15 15 15 15 15 15
17 16 16 16 16 16 16 16 16 16 16 16 16 16 16 16 16 16 16 16 16 15 15 15 16 15 15 15 15 15 15 15 15 15 15 15 14 14 14 14 14 14 14
16 16 16 16 16 16 16 16 16 16 16 16 16 16 16 16 16 16 16 16 15 15 15 15 15 15 15 15 15 15 15 15 15 15 15 15 14 14 14 14 14 14 14
16 16 15 15 16 16 16 16 16 16 16 16 16 16 16 16 16 15 15 15 15 15 15 15 15 15 15 15 15 15 15 15 15 14 14 14 14 14 14 14 14 14 14
15 15 15 15 15 16 16 16 16 16 16 16 16 16 16 16 16 15 15 15 15 15 15 15 15 15 15 15 15 15 15 14 14 14 14 14 14 14 14 14 14 14 14
15 15 15 15 15 16 16 15 15 15 16 16 16 16 16 15 15 15 15 15 15 15 15 15 15 15 15 15 15 15 14 14 14 14 14 14 14 14 14 14 14 14 14
15 15 15 15 15 15 15 15 15 15 15 16 15 15 15 15 15 15 15 15 15 15 15 15 15 15 15 14 14 14 14 14 14 14 14 14 14 14 14 14 14 14 14
14 14 14 15 15 15 15 15 15 15 15 15 15 15 15 15 15 15 15 14 15 15 15 15 15 14 14 14 14 14 14 14 14 14 14 13 13 13 13 14 14 14 14
13 14 14 14 14 14 15 15 15 15 15 15 15 15 15 15 15 15 14 14 14 14 14 14 14 14 14 14 14 14 14 14 14 13 13 13 13 13 13 13 13 13 13
13 13 14 14 14 14 14 15 15 15 15 15 15 15 15 15 14 14 14 14 14 14 14 14 14 14 14 14 14 14 13 13 13 13 13 13 13 12 12 13 13 13 13
13 13 13 14 14 14 14 14 14 14 14 14 14 14 14 14 14 14 14 14 14 14 14 14 14 14 14 14 13 13 13 13 13 13 13 12 12 12 12 12 12 12 12
12 12 13 13 13 14 14 14 14 14 14 14 14 14 14 14 14 14 14 14 14 14 14 14 14 14 13 13 13 13 13 13 13 12 12 12 12 11 11 11 11 12 12
12 12 12 12 13 13 13 13 14 14 14 14 14 14 14 14 14 14 13 13 13 14 14 14 14 13 13 13 13 13 12 12 12 12 12 12 11 11 11 11 11 11 11
11 12 12 12 12 13 13 13 13 13 13 13 13 13 13 13 13 13 13 13 13 13 13 13 13 13 13 13 13 12 12 12 12 12 12 11 11 11 11 11 11 11 11
11 11 12 12 12 12 12 13 13 13 13 13 13 13 13 13 13 13 13 13 13 13 13 13 13 13 13 13 12 12 12 12 12 11 11 11 11 10 10 10 10 10 10
11 11 11 11 11 11 12 12 12 12 13 13 13 13 13 13 13 13 13 13 13 13 13 13 13 13 12 12 12 12 12 11 11 11 11 10 10 10 10 10 10 10 10
11 11 11 11 11 11 11 12 12 12 12 12 12 12 12 12 12 12 12 12 12 12 12 12 12 12 12 12 12 11 11 11 11 10 10 10 10 10 10 10 10 9 9
10 11 11 11 11 11 11 11 12 12 12 12 12 12 12 12 12 12 12 12 12 12 12 12 12 12 12 11 11 11 11 10 10 10 10 10 10 10 10 10 9 9 9
10 10 10 10 11 11 11 11 11 11 11 11 11 11 11 11 12 12 12 12 12 11 11 11 11 11 11 11 11 11 10 10 10 10 9 9 9 9 9 9 9 9 9
10 10 10 10 10 10 10 10 11 11 11 11 11 11 11 11 11 11 11 11 11 11 11 11 11 11 10 10 10 10 10 9 9 9 9 9 9 9 9 9 9 9 9
9 9 10 10 10 10 10 10 10 11 11 11 11 11 10 11 11 10 10 11 11 10 10 10 10 10 10 10 10 9 9 9 9 9 9 9 8 8 8 8 8 8 8
9 9 9 10 10 10 10 10 10 10 10 10 10 10 10 10 10 10 10 10 10 10 10 10 10 10 10 9 9 9 9 8 8 8 8 8 8 8 8 8 8 8 8
9 9 9 9 9 9 9 9 10 10 10 9 9 10 10 10 10 10 10 9 9 9 9 9 9 9 9 9 9 9 8 8 8 8 8 8 8 7 7 7 7 7 7
9 9 9 9 9 9 9 9 9 9 9 9 9 9 9 9 9 9 9 9 9 9 9 9 9 9 9 9 8 8 8 8 8 7 7 7 7 7 7 7 7 7 7
9 9 9 9 9 9 9 9 9 9 9 9 9 9 9 9 9 9 9 9 9 9 9 8 8 8 8 8 8 8 8 7 7 7 7 7 7 7 7 7 7 6 6
9 9 9 9 9 9 9 9 9 8 9 8 8 9 9 9 9 9 8 8 8 8 8 8 8 8 8 8 7 7 7 7 7 6 6 6 6 7 7 6 6 6 6
Wind_Speed
2 5 10 12 12 12 12 12 13 14 13 14 14 14 13 13 12 12 11 11 10 10 10 11 11 11 11 11 11 11 10 10 10 10 9 9 9 10 10 10 9 9 9
4 7 10 12 13 12 12 12 13 13 13 13 13 14 13 13 12 12 11 11 10 10 10 10 10 10 11 11 11 11 10 10 10 9 9 9 8 9 9 9 9 8 9
3 7 10 12 13 13 12 12 13 13 14 13 13 13 13 12 12 11 11 11 10 10 10 10 10 10 10 10 11 10 10 10 10 9 9 7 7 8 8 8 8 8 7
3 6 9 12 14 14 13 12 12 13 14 13 13 12 12 12 11 11 11 10 10 10 10 10 10 10 10 10 10 10 10 10 9 9 7 6 6 7 7 7 7 7 6
2 5 8 11 13 14 14 13 11 13 13 13 13 12 12 12 11 11 10 10 10 10 9 9 9 10 10 9 9 10 9 9 9 8 7 6 5 5 6 6 6 5 5
2 4 7 10 13 14 14 14 12 12 13 13 13 12 12 12 11 11 10 10 9 9 9 9 9 9 9 9 9 9 9 8 8 7 6 5 4 4 5 6 6 6 5
2 3 7 9 11 13 13 14 13 12 12 12 12 13 12 11 11 10 10 9 9 9 8 8 8 9 9 9 9 9 9 8 7 6 5 4 3 4 5 5 5 5 6
2 3 5 9 10 12 14 13 14 13 12 12 12 12 12 12 11 10 9 9 9 8 8 8 8 8 9 9 9 9 9 8 7 6 4 3 3 4 4 4 4 4 4
3 3 3 6 9 11 12 13 13 13 12 12 12 11 11 11 11 10 9 9 9 8 8 7 8 8 9 9 9 10 10 9 8 6 5 4 3 5 5 5 5 5 5
3 4 3 4 6 8 10 12 13 13 13 12 12 12 12 11 10 9 8 8 8 8 8 8 8 9 9 9 9 10 10 9 8 6 5 5 5 6 7 6 6 7 7
3 2 3 3 5 6 8 10 11 12 12 11 11 12 12 10 10 9 9 8 8 8 8 9 8 9 9 9 9 9 9 8 7 6 4 4 5 6 7 8 7 7 7
2 2 2 3 4 6 7 7 9 9 10 10 10 11 10 10 10 9 9 9 8 8 8 8 9 9 8 8 8 8 8 8 7 5 4 5 5 6 7 8 8 8 7
2 2 3 3 4 6 6 6 7 8 9 9 9 10 10 10 9 9 9 9 9 8 8 8 8 8 7 7 6 7 8 7 6 6 6 6 6 6 7 8 8 8 8
2 2 3 4 4 5 6 5 6 6 6 7 8 9 9 7 7 7 7 7 7 7 7 6 6 7 7 7 6 7 7 6 6 6 8 9 8 8 8 8 9 9 8
3 3 3 5 5 4 5 5 6 5 6 7 8 8 9 7 5 5 5 6 6 6 6 5 5 6 6 6 6 6 6 7 8 9 9 11 10 9 8 8 9 9 9
3 4 5 5 5 5 5 5 5 5 6 7 7 8 9 8 6 5 5 5 5 6 6 5 5 5 4 5 5 6 6 7 8 9 9 10 11 10 9 9 10 10 10
3 3 6 6 6 5 5 5 5 6 7 6 6 8 8 8 8 7 5 4 5 6 7 6 6 5 4 4 4 5 6 6 7 8 8 9 9 10 10 10 10 10 10
4 4 5 6 7 6 5 5 5 6 7 6 7 7 7 7 8 7 5 4 5 6 6 4 3 4 4 4 3 3 4 5 6 7 8 8 8 8 9 10 10 10 10
4 4 6 6 7 6 5 6 6 6 6 6 6 6 6 7 7 7 5 4 5 5 4 3 4 3 3 4 3 4 3 3 4 5 6 7 8 8 8 8 9 9 10
2 4 5 6 6 6 4 5 5 5 4 5 5 5 6 6 7 7 5 5 5 4 4 4 4 4 3 3 4 4 4 3 4 4 4 6 7 7 7 7 8 8 9
3 5 5 6 5 5 3 3 4 3 2 3 4 5 6 6 6 6 4 4 4 4 4 4 3 4 3 2 3 3 3 3 3 2 3 4 4 5 6 6 6 7 7
3 4 5 5 5 4 3 2 3 3 3 2 3 5 5 6 5 5 4 3 3 3 4 3 3 2 2 3 2 2 1 2 2 1 1 1 2 3 4 4 4 5 6
3 4 4 5 5 4 4 4 5 4 3 2 3 2 3 4 5 5 5 4 3 3 3 3 3 3 2 2 2 2 2 2 1 1 1 1 1 1 1 2 3 3 4
3 3 4 5 5 4 4 5 5 4 3 2 2 2 2 3 4 5 5 4 3 3 3 2 2 2 3 1 1 2 2 2 1 1 2 1 1 0 1 0 1 1 3
3 3 4 4 4 4 4 4 5 4 2 2 3 3 2 2 3 4 4 4 3 2 2 2 2 2 2 2 2 1 1 1 1 2 2 2 2 1 1 1 1 1 1
3 3 4 4 4 4 4 4 5 5 5 4 3 2 1 1 1 2 2 3 2 2 2 2 2 3 2 2 2 1 2 2 1 2 1 2 3 2 2 1 1 1 1
Wind_Direction
202 194 175 164 157 150 144 143 141 137 133 131 130 127 125 125 122 119 116 112 108 102 99 95 95 98 99 98 96 93 88 84 81 80 79 77 79 81 82 80 74 71 78
187 187 174 165 158 152 145 142 142 139 137 134 132 128 125 124 122 119 117 114 111 107 103 98 97 99 99 96 94 92 88 84 83 82 79 76 80 83 82 80 79 79 76
160 173 170 164 155 151 145 141 142 142 139 137 134 131 127 124 122 118 116 113 110 108 105 98 97 99 99 98 95 93 88 84 83 82 78 70 76 86 85 82 79 79 79
151 162 166 162 156 150 146 143 144 144 142 139 136 135 132 128 125 122 118 114 110 107 103 98 96 100 97 98 99 96 91 87 84 80 72 64 67 85 85 82 79 78 77
125 153 161 162 159 150 147 145 145 144 143 140 138 138 134 132 128 123 120 116 112 108 107 102 97 101 97 95 98 97 92 87 84 81 73 66 60 77 84 81 74 74 75
112 146 155 157 160 153 149 148 146 144 142 140 141 140 137 133 129 124 119 116 115 111 107 104 100 102 97 90 91 95 93 90 86 81 73 70 55 67 81 79 69 64 61
125 137 155 153 159 158 152 149 146 143 141 139 140 139 136 133 129 124 120 117 117 113 110 106 102 99 95 91 91 90 88 90 86 80 71 70 56 67 80 76 67 58 50
132 114 155 158 157 159 153 149 146 142 140 137 131 132 136 134 130 126 124 122 119 114 109 105 102 96 91 89 91 89 85 86 84 74 70 68 61 70 76 71 61 51 47
107 92 115 147 154 154 153 149 146 140 135 132 127 124 123 124 127 126 124 123 119 113 109 106 102 94 89 88 88 89 87 85 81 69 65 62 63 70 74 73 66 58 54
107 92 88 113 127 137 144 146 141 134 128 124 119 114 110 109 109 111 114 118 116 112 107 104 101 95 89 87 86 88 87 81 75 66 54 60 65 69 71 68 65 61 59
110 105 92 120 115 121 125 133 127 121 117 116 112 107 102 98 96 91 91 101 109 108 105 99 99 95 89 84 82 84 84 75 71 59 51 63 72 72 73 69 62 56 51
159 144 116 133 124 117 115 113 111 108 105 103 105 103 99 94 90 87 84 82 86 92 96 93 91 89 84 78 76 78 76 74 67 53 51 69 78 73 70 65 58 52 47
176 157 133 116 118 108 104 103 103 103 101 98 100 103 99 92 87 81 76 70 71 72 75 79 76 75 76 77 75 75 75 74 66 58 57 73 75 72 69 63 56 51 47
138 153 122 102 97 103 106 103 104 103 99 96 98 102 101 92 84 81 75 73 70 71 70 70 75 74 72 74 82 81 74 72 69 64 63 74 77 73 67 63 58 53 48
145 144 124 103 102 103 101 99 95 99 102 102 99 98 102 98 92 87 81 78 77 77 76 73 76 77 72 67 75 84 80 76 76 73 65 67 69 67 65 62 57 54 49
153 155 128 114 112 108 104 104 102 99 101 98 96 98 101 103 101 93 83 72 69 75 81 82 81 82 78 77 76 77 83 81 80 76 70 65 65 66 67 63 58 51 44
145 141 131 128 115 110 111 113 109 102 99 93 93 97 99 103 105 98 88 73 67 77 82 79 71 72 73 74 72 73 78 80 83 77 74 68 62 60 63 61 56 50 42
131 132 130 128 118 109 105 103 101 100 98 95 96 96 97 101 103 98 90 77 77 81 79 77 65 68 63 66 68 63 70 78 82 78 76 73 68 63 61 62 56 52 46
146 138 125 121 118 112 102 101 93 89 88 92 95 94 95 97 99 96 89 85 87 80 72 77 65 70 66 61 72 70 62 66 69 78 75 70 69 68 65 63 60 55 48
123 126 124 117 112 109 103 96 88 76 74 79 83 87 95 97 100 98 92 86 87 84 73 75 81 68 74 66 70 67 56 54 63 65 69 68 67 68 70 67 59 50 43
121 127 123 115 112 116 118 117 107 101 90 80 77 81 88 95 100 100 98 89 85 89 92 90 91 82 58 48 72 54 35 45 62 63 64 65 60 64 68 66 61 52 40
138 133 127 125 122 118 119 125 116 113 102 91 78 73 79 89 95 102 102 98 94 98 90 84 91 95 63 40 92 105 54 348 11 45 51 71 54 58 58 58 57 49 43
157 156 148 139 129 119 112 104 95 83 75 76 75 64 59 87 96 103 108 107 101 107 112 100 97 110 112 48 52 123 140 218 294 327 2 41 20 54 41 42 44 37 37
171 158 143 139 132 130 129 129 126 131 138 145 127 108 73 82 91 99 106 109 106 102 111 108 94 107 119 112 53 52 100 144 168 292 320 332 332 303 292 344 10 23 32
145 142 139 132 133 137 139 140 136 130 125 106 102 104 83 67 82 94 104 106 106 106 112 107 107 111 119 142 150 134 101 76 120 171 264 306 326 293 270 253 242 275 2
128 129 128 134 140 145 145 146 155 150 140 135 138 139 124 90 72 82 104 113 121 125 129 128 127 120 118 127 139 153 158 158 165 154 218 278 288 284 279 264 241 248 282
Height
1505 1507 1509 1511 1513 1515 1516 1518 1520 1521 1522 1524 1525 1526 1527 1528 1530 1530 1531 1532 1533 1534 1534 1535 1536 1536 1537 1538 1538 1539 1539 1540 1541 1541 1542 1542 1542 1543 1543 1543 1544 1544 1544
1504 1506 1508 1510 1512 1514 1516 1518 1519 1521 1523 1524 1525 1526 1527 1528 1529 1530 1531 1532 1533 1534 1535 1535 1536 1537 1537 1538 1538 1539 1540 1541 1541 1542 1542 1543 1543 1543 1544 1544 1544 1545 1545
1503 1505 1508 1510 1512 1514 1516 1518 1519 1521 1522 1524 1525 1526 1527 1528 1529 1530 1531 1532 1533 1534 1535 1536 1536 1537 1538 1538 1539 1540 1540 1541 1542 1542 1543 1543 1544 1544 1544 1545 1545 1545 1546
1503 1505 1507 1509 1511 1513 1515 1517 1519 1520 1522 1523 1524 1526 1527 1528 1529 1530 1531 1532 1533 1534 1535 1536 1536 1537 1538 1539 1539 1540 1541 1542 1542 1543 1543 1544 1544 1544 1545 1545 1545 1546 1546
1503 1505 1506 1509 1510 1512 1514 1516 1518 1520 1521 1523 1524 1525 1527 1528 1529 1530 1531 1532 1533 1534 1535 1536 1536 1537 1538 1539 1540 1540 1541 1542 1542 1543 1544 1544 1544 1545 1545 1545 1545 1546 1546
1502 1504 1506 1508 1509 1511 1513 1515 1517 1519 1521 1522 1523 1525 1526 1528 1529 1530 1531 1532 1533 1534 1535 1536 1536 1537 1538 1539 1540 1541 1541 1542 1543 1543 1544 1544 1544 1545 1545 1545 1545 1546 1546
1501 1503 1505 1507 1509 1511 1513 1515 1516 1518 1520 1521 1523 1524 1526 1527 1529 1530 1531 1532 1533 1534 1535 1536 1536 1537 1538 1539 1540 1541 1541 1542 1543 1543 1544 1544 1544 1545 1545 1545 1545 1545 1545
1500 1502 1504 1506 1508 1510 1512 1514 1515 1517 1519 1521 1522 1524 1525 1527 1528 1530 1531 1532 1533 1534 1535 1536 1536 1537 1538 1539 1540 1541 1541 1542 1543 1543 1544 1544 1544 1544 1544 1545 1545 1545 1545
1500 1501 1503 1505 1507 1509 1511 1513 1515 1516 1518 1520 1522 1523 1525 1526 1528 1529 1531 1532 1533 1534 1535 1535 1536 1537 1538 1539 1540 1540 1541 1542 1543 1543 1544 1544 1544 1544 1544 1544 1544 1544 1544
1498 1500 1501 1503 1505 1507 1509 1511 1513 1515 1517 1519 1520 1522 1524 1526 1527 1529 1530 1531 1533 1534 1534 1535 1536 1537 1538 1539 1539 1540 1541 1542 1542 1543 1543 1544 1544 1544 1544 1544 1544 1544 1543
1497 1498 1499 1501 1503 1505 1508 1510 1512 1515 1516 1518 1519 1521 1523 1525 1527 1528 1529 1531 1532 1533 1534 1535 1536 1537 1538 1538 1539 1540 1540 1541 1542 1542 1543 1543 1543 1543 1543 1543 1543 1543 1542
1494 1496 1498 1499 1501 1504 1506 1508 1511 1514 1516 1517 1518 1521 1522 1524 1526 1527 1529 1530 1531 1533 1534 1535 1535 1536 1537 1538 1538 1539 1540 1541 1541 1542 1542 1543 1543 1543 1543 1543 1543 1542 1542
1493 1495 1496 1497 1500 1502 1505 1507 1509 1513 1515 1517 1518 1520 1522 1524 1525 1527 1528 1530 1531 1532 1533 1534 1535 1536 1536 1537 1538 1538 1539 1540 1540 1541 1541 1542 1542 1542 1542 1542 1542 1542 1541
1491 1494 1495 1496 1498 1502 1504 1506 1509 1512 1514 1516 1518 1520 1521 1523 1525 1526 1528 1529 1530 1531 1532 1533 1534 1535 1536 1537 1537 1538 1538 1539 1539 1540 1541 1541 1541 1541 1541 1541 1541 1541 1540
1490 1492 1494 1495 1498 1501 1503 1506 1508 1511 1513 1516 1518 1520 1521 1523 1524 1526 1527 1528 1530 1531 1532 1532 1533 1534 1535 1536 1536 1537 1537 1538 1538 1539 1540 1540 1540 1540 1540 1540 1540 1539 1539
1489 1491 1492 1495 1498 1500 1503 1506 1508 1510 1513 1515 1518 1519 1521 1522 1524 1525 1526 1528 1529 1530 1531 1532 1533 1533 1534 1535 1535 1536 1536 1537 1537 1538 1538 1539 1539 1539 1539 1539 1538 1538 1537
1489 1490 1492 1496 1498 1501 1503 1505 1508 1510 1512 1515 1517 1519 1521 1522 1523 1525 1526 1527 1528 1529 1530 1531 1532 1532 1533 1534 1534 1535 1535 1536 1536 1537 1537 1538 1538 1538 1538 1537 1537 1536 1536
1489 1490 1492 1495 1497 1500 1502 1505 1507 1509 1512 1514 1516 1518 1520 1521 1523 1524 1526 1527 1528 1529 1529 1530 1531 1531 1532 1533 1533 1534 1534 1535 1535 1536 1536 1536 1536 1536 1536 1536 1535 1535 1534
1490 1491 1493 1495 1496 1499 1502 1504 1505 1508 1511 1513 1515 1517 1519 1521 1522 1523 1525 1526 1527 1527 1528 1529 1530 1531 1531 1532 1532 1532 1533 1534 1534 1535 1535 1535 1535 1535 1535 1534 1534 1533 1533
1489 1491 1493 1495 1496 1499 1501 1503 1505 1507 1510 1512 1514 1517 1519 1520 1521 1522 1523 1524 1526 1527 1527 1528 1529 1530 1530 1530 1530 1531 1532 1533 1533 1533 1533 1534 1534 1534 1533 1533 1532 1532 1531
1489 1491 1493 1494 1496 1498 1500 1502 1505 1507 1509 1511 1514 1516 1518 1519 1520 1522 1523 1524 1525 1526 1526 1527 1528 1528 1529 1529 1530 1530 1531 1532 1532 1532 1532 1532 1532 1532 1532 1531 1531 1530 1530
1487 1490 1492 1494 1496 1498 1500 1502 1504 1506 1509 1511 1513 1515 1517 1518 1520 1521 1522 1523 1524 1525 1525 1526 1527 1527 1528 1528 1529 1529 1529 1531 1530 1530 1530 1531 1531 1530 1530 1530 1529 1528 1528
1487 1489 1492 1494 1496 1498 1500 1502 1504 1506 1508 1510 1512 1514 1516 1518 1519 1521 1521 1522 1523 1524 1524 1525 1525 1526 1526 1527 1527 1528 1528 1528 1528 1528 1528 1528 1529 1528 1528 1527 1527 1526 1525
1487 1489 1491 1494 1496 1498 1500 1502 1503 1505 1507 1509 1511 1513 1516 1517 1519 1520 1520 1521 1522 1522 1523 1523 1524 1524 1524 1524 1525 1525 1527 1526 1527 1526 1526 1526 1526 1526 1525 1525 1524 1524 1523
1487 1489 1491 1493 1496 1498 1500 1501 1503 1505 1507 1508 1511 1513 1514 1516 1517 1518 1519 1519 1520 1521 1521 1522 1522 1522 1522 1523 1523 1523 1524 1524 1524 1524 1523 1524 1524 1523 1523 1522 1521 1521 1520
1487 1489 1490 1493 1495 1497 1499 1501 1503 1504 1506 1508 1510 1512 1513 1514 1515 1516 1517 1518 1518 1519 1519 1520 1520 1520 1520 1521 1521 1521 1521 1522 1521 1521 1521 1520 1520 1520 1519 1519 1518 1518 1517